Location: Anuling
(14.1239°N, 120.8922°E)
Time: 03:47:20
(UTC+00:00)

Cosmos 1340 Rocket - Pass Details

Date: 14 January 2026
Orbit: 486 x 516 km, 81.2° (Epoch: 11 February)

Event Time Altitude Azimuth Distance (km) Brightness Sun altitude
Rises 10:13:46 0° 22° (NNE) 2,619 5.9 -7.0°
Reaches altitude 10° 10:16:44 10° 48° (NE) 1,737 4.8 -7.6°
Maximum altitude 10:18:50 14° 81° (E) 1,484 4.4 -8.1°
Drops below altitude 10° 10:20:57 10° 115° (ESE) 1,739 5.0 -8.6°
Sets 10:23:55 0° 140° (SE) 2,626 6.1 -9.3°
